Location: Unspecified
(43.8688°N, 3.6914°E)
Time: 14:59:54
(UTC+01:00)

ISS - Visible Passes

Search period start: 20 February 2018 00:00
Search period end: 02 March 2018 00:00
Orbit: 403 x 407 km, 51.6° (Epoch: 21 February)

Date Brightness Start Highest point End Pass type
(mag) Time Alt. Az. Time Alt. Az. Time Alt. Az.
26 Feb -1.0 06:22:53 10° S 06:25:08 18° SE 06:27:24 10° E visible
28 Feb -2.5 06:13:45 10° SSW 06:16:49 38° SE 06:19:54 10° ENE visible
01 Mar -1.7 05:24:00 20° SSE 05:24:39 21° SE 05:27:14 10° E visible
